Fairchild Air Force Base, WA

4:12 AM PDT on September 28, 2016 (GMT -0700)
Fairchild Air Force Base

Weather History for KSKA - August, 2013

Change the Weather History Date:

Sunday, August 11, 2013

  Actual Average Record
Temperature  
Mean Temperature 72 °F -  
Max Temperature 85 °F 83 °F 95 °F (1996)
Min Temperature 59 °F 56 °F 44 °F (2008)
Cooling Degree Days 8    
Growing Degree Days 22 (Base 50)    
Moisture  
Dew Point 55 °F    
Average Humidity 50    
Maximum Humidity 88    
Minimum Humidity 35    
Precipitation  
Precipitation 0.25 in - - ()
Sea Level Pressure  
Sea Level Pressure 29.97 in    
Wind  
Wind Speed 7 mph (SW)    
Max Wind Speed 13 mph    
Max Gust Speed -    
Visibility 10 miles    
Events Rain , Thunderstorm    
Averages and records for this station are not official NWS values.
T = Trace of Precipitation, MM = Missing Value Source: NWS Daily Summary

Daily Weather History Graph

Daily Weather History Graph

Search for Another Location

Airport or City:

Trip Planner

Search our weather history database for the weather conditions in past years. The results will help you decide how hot, cold, wet, or windy it might be!

Date:

Astronomy

Aug. 11, 2013 Rise Set
Actual Time 5:41 AM PDT 8:09 PM PDT
Civil Twilight 5:07 AM PDT 8:43 PM PDT
Nautical Twilight 4:23 AM PDT 9:26 PM PDT
Astronomical Twilight 3:33 AM PDT 10:15 PM PDT
Moon 11:00 AM PDT (8/11) 9:59 PM PDT (8/11)
Length of Visible Light 15h 36m
Length of Day
14h 27m
Waxing Crescent, 23% of the Moon is Illuminated
Aug 11
Waxing Crescent
Aug 14
First Quarter
Aug 20
Full
Aug 28
Last Quarter
Sep 5
New

Hourly Weather History & Observations

Time (PDT) Temp. Heat Index Dew Point Humidity Pressure Visibility Wind Dir Wind Speed Gust Speed Precip Events Conditions
12:58 AM 72.5 °F - 46.9 °F 40% 29.91 in 10.0 mi WNW 9.2 mph - N/A   Overcast
1:20 AM 71.6 °F - 46.4 °F 41% 29.95 in 10.0 mi NNW 9.2 mph - N/A Thunderstorm Thunderstorm
1:28 AM 71.6 °F - 48.2 °F 43% 29.96 in 10.0 mi ENE 5.8 mph - N/A Rain , Thunderstorm Light Thunderstorms and Rain
1:53 AM 64.4 °F - 55.4 °F 73% 29.98 in 8.0 mi WNW 6.9 mph - N/A Rain , Thunderstorm Light Thunderstorms and Rain
1:56 AM 64.4 °F - 55.4 °F 73% 29.98 in 4.0 mi North 9.2 mph - N/A Rain , Thunderstorm Light Rain
1:58 AM 64.4 °F - 53.6 °F 68% 29.94 in 3.0 mi North 12.7 mph - 0.22 in Rain , Thunderstorm Light Rain
2:00 AM 66.2 °F - 53.6 °F 64% 29.97 in 3.0 mi North 10.4 mph - N/A Thunderstorm Haze
2:58 AM 63.9 °F - 52.7 °F 67% 29.97 in 10.0 mi South 8.1 mph - 0.00 in   Scattered Clouds
3:37 AM 64.4 °F - 55.4 °F 73% 30.02 in 9.0 mi WSW 6.9 mph - N/A Rain , Thunderstorm Light Rain
3:39 AM 64.4 °F - 57.2 °F 77% 30.02 in 8.0 mi SW 6.9 mph - N/A Rain , Thunderstorm Light Rain
3:58 AM 62.6 °F - 57.2 °F 82% 29.99 in 9.0 mi North 5.8 mph - 0.02 in Rain , Thunderstorm Light Rain
4:21 AM 60.8 °F - 57.2 °F 88% 29.98 in 10.0 mi NW 10.4 mph - N/A   Mostly Cloudy
4:58 AM 61.9 °F - 55.9 °F 81% 29.95 in 10.0 mi NE 6.9 mph - 0.01 in   Mostly Cloudy
5:58 AM 59.4 °F - 55.9 °F 88% 29.99 in 10.0 mi South 8.1 mph - N/A   Scattered Clouds
6:58 AM 61.2 °F - 56.8 °F 86% 29.97 in 10.0 mi SSE 2.3 mph - N/A   Clear
7:58 AM 65.3 °F - 58.3 °F 78% 29.99 in 10.0 mi SSW 6.9 mph - N/A   Clear
8:58 AM 68.2 °F - 59.2 °F 73% 30.00 in 10.0 mi WSW 4.6 mph - N/A   Clear
9:58 AM 71.6 °F - 58.3 °F 63% 30.00 in 10.0 mi South 4.6 mph - N/A   Clear
10:58 AM 74.8 °F - 56.3 °F 52% 29.98 in 10.0 mi Variable 2.3 mph - N/A   Clear
11:58 AM 77.0 °F - 56.5 °F 49% 29.98 in 10.0 mi NNW 5.8 mph - N/A   Clear
12:34 PM 78.8 °F - 55.4 °F 44% 30.01 in 10.0 mi Variable 2.3 mph - N/A   Light Drizzle
12:44 PM 80.6 °F 80.5 °F 55.4 °F 42% 30.01 in 10.0 mi ESE 2.3 mph - N/A   Clear
12:58 PM 79.7 °F - 55.4 °F 43% 29.97 in 10.0 mi Variable 3.5 mph - 0.00 in   Clear
1:11 PM 80.6 °F 80.5 °F 55.4 °F 42% 30.01 in 10.0 mi Variable 2.3 mph - N/A Rain Light Rain
1:19 PM 80.6 °F 80.3 °F 53.6 °F 39% 30.01 in 10.0 mi Variable 4.6 mph - N/A   Clear
1:31 PM 80.6 °F 80.3 °F 53.6 °F 39% 30.00 in 10.0 mi Variable 1.2 mph - N/A   Light Drizzle
1:58 PM 81.5 °F 80.9 °F 54.3 °F 39% 29.96 in 10.0 mi SW 3.5 mph - 0.00 in   Light Drizzle
2:11 PM 82.4 °F 81.7 °F 55.4 °F 39% 29.99 in 10.0 mi Variable 1.2 mph - N/A   Clear
2:12 PM 82.4 °F 81.7 °F 55.4 °F 39% 29.99 in 10.0 mi Variable 3.5 mph - N/A Rain Light Rain
2:14 PM 82.4 °F 81.7 °F 55.4 °F 39% 29.99 in 10.0 mi Variable 1.2 mph - N/A   Clear
2:15 PM 82.4 °F 81.7 °F 55.4 °F 39% 29.99 in 10.0 mi Calm Calm - N/A Rain Light Rain
2:22 PM 82.4 °F 81.4 °F 53.6 °F 37% 29.99 in 10.0 mi Variable 5.8 mph - N/A   Clear
2:23 PM 82.4 °F 81.4 °F 53.6 °F 37% 29.99 in 10.0 mi Variable 4.6 mph - N/A   Light Drizzle
2:25 PM 82.4 °F 81.4 °F 53.6 °F 37% 29.99 in 10.0 mi WNW 4.6 mph - N/A   Clear
2:26 PM 82.4 °F 81.4 °F 53.6 °F 37% 29.99 in 10.0 mi NW 5.8 mph - N/A   Light Drizzle
2:48 PM 82.4 °F 81.4 °F 53.6 °F 37% 29.99 in 10.0 mi SSE 6.9 mph - N/A   Clear
2:53 PM 82.4 °F 81.4 °F 53.6 °F 37% 29.99 in 10.0 mi Variable 4.6 mph - N/A   Light Drizzle
2:58 PM 83.1 °F 82.1 °F 54.7 °F 37% 29.94 in 10.0 mi Variable 4.6 mph - 0.00 in   Light Drizzle
3:04 PM 82.4 °F 81.4 °F 53.6 °F 37% 29.98 in 10.0 mi WNW 4.6 mph - N/A   Clear
3:05 PM 84.2 °F 82.8 °F 53.6 °F 35% 29.98 in 10.0 mi Variable 3.5 mph - N/A Rain Light Rain
3:12 PM 84.2 °F 83.0 °F 55.4 °F 37% 29.98 in 10.0 mi WSW 5.8 mph - N/A   Clear
3:18 PM 82.4 °F 81.4 °F 53.6 °F 37% 29.98 in 10.0 mi South 3.5 mph - N/A   Light Drizzle
3:32 PM 84.2 °F 82.8 °F 53.6 °F 35% 29.97 in 10.0 mi Variable 3.5 mph - N/A   Clear
3:50 PM 86.0 °F 84.5 °F 55.4 °F 35% 29.96 in 10.0 mi West 4.6 mph - N/A Rain Light Rain
3:53 PM 86.0 °F 84.5 °F 55.4 °F 35% 29.96 in 10.0 mi Variable 2.3 mph - N/A   Clear
3:58 PM 85.3 °F 83.8 °F 54.9 °F 35% 29.92 in 10.0 mi Variable 3.5 mph - 0.00 in   Clear
4:02 PM 86.0 °F 84.5 °F 55.4 °F 35% 29.96 in 10.0 mi Variable 2.3 mph - N/A   Light Drizzle
4:27 PM 84.2 °F 83.0 °F 55.4 °F 37% 29.95 in 10.0 mi SSE 4.6 mph - N/A   Clear
4:40 PM 84.2 °F 83.0 °F 55.4 °F 37% 29.95 in 10.0 mi South 5.8 mph - N/A   Light Drizzle
4:48 PM 84.2 °F 83.0 °F 55.4 °F 37% 29.95 in 10.0 mi Variable 4.6 mph - N/A   Clear
4:58 PM 84.4 °F 83.1 °F 55.0 °F 36% 29.91 in 10.0 mi SSE 8.1 mph - 0.00 in   Clear
5:58 PM 83.7 °F 82.7 °F 55.8 °F 38% 29.91 in 10.0 mi SSW 6.9 mph - N/A   Clear
6:58 PM 81.0 °F 81.1 °F 57.6 °F 45% 29.91 in 10.0 mi SSW 9.2 mph - N/A   Clear
7:31 PM 78.8 °F - 57.2 °F 47% 29.95 in 10.0 mi SSW 9.2 mph - N/A Rain Light Rain
7:32 PM 78.8 °F - 57.2 °F 47% 29.95 in 10.0 mi SSW 10.4 mph - N/A   Clear
7:39 PM 78.8 °F - 57.2 °F 47% 29.95 in 10.0 mi SW 12.7 mph - N/A   Light Drizzle
7:49 PM 78.8 °F - 57.2 °F 47% 29.95 in 10.0 mi SSW 10.4 mph - N/A   Partly Cloudy
7:58 PM 77.9 °F - 56.5 °F 48% 29.92 in 10.0 mi SSW 10.4 mph - 0.00 in   Scattered Clouds
8:11 PM 77.0 °F - 57.2 °F 50% 29.96 in 10.0 mi SSW 9.2 mph - N/A   Light Drizzle
8:21 PM 77.0 °F - 57.2 °F 50% 29.96 in 10.0 mi SSW 8.1 mph - N/A   Partly Cloudy
8:58 PM 74.3 °F - 56.8 °F 54% 29.95 in 10.0 mi SW 8.1 mph - 0.00 in   Clear
9:58 PM 70.5 °F - 55.6 °F 59% 29.95 in 10.0 mi WSW 8.1 mph - N/A   Clear
10:58 PM 68.9 °F - 54.0 °F 59% 29.95 in 10.0 mi SW 5.8 mph - N/A   Clear
11:58 PM 66.9 °F - 53.8 °F 63% 29.96 in 10.0 mi WSW 5.8 mph - N/A   Clear